Location: Ch�teau-Arnoux
(44.0814°N, 6.0027°E)
Time: 21:13:54
(UTC+00:00)

NOSS 3-3 (C) - Pass Details

Date: 15 November 2019
Orbit: 844 x 1368 km, 63.4° (Epoch: 05 December)

Event Time Altitude Azimuth Distance (km) Brightness Sun altitude
Exits shadow 04:28:37 13° 210° (SSW) 2,329 5.7 -21.9°
Maximum altitude 04:33:55 81° 125° (SE) 954 4.0 -20.9°
Drops below altitude 10° 04:40:29 10° 39° (NE) 2,829 6.8 -19.8°
Sets 04:43:16 0° 38° (NE) 3,865 7.6 -19.3°
